www.pogodaiklimat.ru

Погода и климат >> Архив погоды >> Австрия >> Цветль


ПОГОДА в Цветле

  • Прогноз погоды в Цветле
  • Монитор погоды в Цветле

АРХИВ ПОГОДЫ в Цветле

Время (UTC), дата Ветер
(напр.,м/с)
 
Видим.   Явления Облачность Т
(С)
Тd
(С)
f
(%)
Тe
(С)
Тes
(С)
Комфортность P
(гПа)
Po
(гПа)
Тmin
(С)
Tmax
(С)
R
(мм)
R24
(мм)
S
(см)
22 10.06 С 2 н/о н/о +18.8 +16.9 89 +21 +21 комфорт 1010.2 953.0
23 10.06 штиль 0 н/о н/о +17.2 +16.1 93 +17 +17 1010.6 953.0
00 11.06 С 2 н/о н/о +16.8 +15.9 94 +17 +17 1010.1 952.5
01 11.06 С 1 н/о н/о +15.8 +15.1 96 +16 +16 1010.1 952.2
02 11.06 штиль 0 н/о н/о +14.8 +14.3 97 +14 +14 1010.3 952.2
03 11.06 С 1 н/о н/о +15.1 +14.5 96 +16 +16 1010.3 952.3
04 11.06 С 1 н/о н/о +15.1 +14.6 97 +16 +16 1010.3 952.3
05 11.06 штиль 0 н/о н/о +16.6 +15.8 95 +16 +16 1009.9 952.2
06 11.06 штиль 0 н/о н/о +20.7 +17.0 79 +24 +24 комфорт 1009.2 952.4 +14.6 +25.8 0.0
07 11.06 ЮВ 1 н/о н/о +22.9 +17.4 71 +28 +28 душно 1009.1 952.7
08 11.06 Ю 1 н/о н/о +24.9 +18.3 67 +29 +29 душно 1009.1 953.1
09 11.06 Ю 2 н/о н/о +26.5 +17.2 57 +31 +31 душно 1008.7 953.0
10 11.06 ЮВ 2 н/о н/о +27.6 +18.0 56 +32 +32 очень
душно
1008.5 953.0
11 11.06 ЮВ 2 н/о н/о +28.7 +16.8 49 +32 +32 душно 1008.0 952.7
12 11.06 ЮВ 2 н/о н/о +28.4 +17.4 51 +32 +32 душно 1007.7 952.4
13 11.06 ЮВ 2 н/о н/о +29.2 +16.6 47 +33 +33 очень
душно
1007.4 952.2
14 11.06 ЮВ 2 н/о н/о +28.3 +17.3 51 +32 +32 душно 1007.4 952.1
15 11.06 ЮВ 2 н/о н/о +29.2 +17.9 51 +34 +34 очень
душно
1006.7 951.6 0.0
16 11.06 ЮВ 2 н/о н/о +27.4 +17.8 56 +32 +32 очень
душно
1007.1 951.6
17 11.06 ЮВ 2 н/о н/о +26.4 +17.4 58 +31 +31 душно 1007.2 951.5
18 11.06 В 1 н/о н/о +25.3 +17.1 60 +29 +29 душно 1007.3 951.4 +20.0 +29.7 0.0
19 11.06 В 1 н/о н/о +23.7 +17.1 67 +28 +28 душно 1008.4 952.2
20 11.06 ЮВ 1 н/о н/о +20.9 +17.4 80 +26 +26 душно 1009.7 952.9
21 11.06 штиль 0 н/о н/о +18.7 +16.8 89 +20 +20 1010.4 953.1
22 11.06 штиль 0 н/о н/о +17.8 +16.4 92 +18 +18 1010.0 952.6
23 11.06 СЗ 1 н/о н/о +16.6 +15.5 93 +17 +17 1009.7 952.0
00 12.06 С 1 н/о н/о +15.0 +14.2 95 +15 +15 1009.5 951.5
01 12.06 штиль 0 н/о н/о +14.1 +13.4 96 +14 +14 1009.8 951.6
02 12.06 штиль 0 н/о н/о +13.4 +13.0 97 +13 +13 1009.9 951.5
03 12.06 СЗ 1 н/о н/о +12.8 +12.3 97 +13 +13 1010.4 951.9
04 12.06 штиль 0 н/о н/о +12.5 +12.0 97 +12 +12 1010.5 951.9
05 12.06 штиль 0 н/о н/о +13.6 +13.1 97 +13 +13 1010.5 952.1
06 12.06 С 1 н/о н/о +17.5 +16.3 93 +19 +19 1009.4 951.9 +12.4 +25.4
07 12.06 СВ 1 н/о н/о +22.9 +16.4 67 +28 +28 душно 1008.2 951.8
08 12.06 ЮВ 1 н/о н/о +25.3 +16.5 58 +29 +29 душно 1007.5 951.6
09 12.06 Ю 2 н/о н/о +26.4 +12.8 43 +28 +28 жарко 1007.6 951.8
10 12.06 ЮВ 2 н/о н/о +27.9 +14.0 43 +30 +30 жарко 1007.3 951.8
11 12.06 ЮВ 2 н/о н/о +29.1 +15.5 44 +32 +32 душно 1006.6 951.4
12 12.06 ЮВ 2 н/о н/о +30.0 +14.4 39 +32 +32 жарко 1006.1 951.1
13 12.06 Ю 3 н/о н/о +30.9 +12.9 33 +32 +32 жарко 1005.8 950.9
14 12.06 ЮВ 2 н/о н/о +30.7 +14.7 38 +33 +33 душно 1005.6 950.7
15 12.06 ЮВ 2 н/о н/о +30.2 +14.9 39 +32 +32 жарко 1005.3 950.4
16 12.06 ЮВ 1 н/о н/о +29.9 +15.0 40 +32 +32 жарко 1005.1 950.1
17 12.06 ЮВ 2 н/о н/о +27.9 +17.2 52 +32 +32 душно 1005.8 950.5
18 12.06 Ю 1 н/о н/о +25.4 +17.0 60 +29 +29 душно 1006.5 950.7 +16.6 +31.0
19 12.06 Ю 1 н/о н/о +23.3 +18.2 73 +29 +29 душно 1007.4 951.2
20 12.06 Ю 1 н/о н/о +20.4 +17.7 84 +25 +25 комфорт 1009.6 952.7
21 12.06 ЮЗ 1 н/о н/о +20.7 +17.1 80 +25 +25 комфорт 1010.4 953.5
22 12.06 штиль 0 н/о н/о +19.3 +16.2 82 +21 +21 комфорт 1011.0 953.8
23 12.06 штиль 0 н/о н/о +17.3 +15.8 91 +17 +17 1011.4 953.8
00 13.06 штиль 0 н/о н/о +16.2 +15.1 93 +16 +16 1011.7 953.8
01 13.06 штиль 0 н/о н/о +15.2 +14.3 94 +15 +15 1011.9 953.8
02 13.06 штиль 0 н/о н/о +15.0 +14.3 96 +15 +15 1012.2 954.0
03 13.06 штиль 0 н/о н/о +14.5 +13.9 96 +14 +14 1012.4 954.1
04 13.06 штиль 0 н/о н/о +15.7 +14.3 91 +15 +15 1012.7 954.7
05 13.06 ЮЗ 1 н/о н/о +16.6 +13.7 83 +17 +17 1013.3 955.4
06 13.06 штиль 0 н/о н/о +18.4 +13.7 74 +19 +19 1013.5 955.9 +14.4 +26.3
07 13.06 СЗ 1 н/о н/о +18.9 +14.1 74 +21 +21 комфорт 1013.4 955.9
08 13.06 СЗ 1 н/о н/о +19.8 +14.7 72 +23 +23 комфорт 1013.5 956.2
09 13.06 С 2 н/о н/о +20.9 +14.8 68 +25 +25 комфорт 1013.3 956.2
10 13.06 С 1 н/о н/о +21.6 +15.0 66 +25 +25 комфорт 1012.9 956.0
11 13.06 штиль 0 н/о н/о +23.7 +15.8 61 +27 +27 жарко 1012.2 955.7
12 13.06 Ю 1 н/о н/о +24.8 +16.1 58 +28 +28 жарко 1011.5 955.3
13 13.06 СЗ 1 н/о н/о +25.9 +16.6 56 +29 +29 душно 1011.1 955.1
14 13.06 С 1 н/о н/о +25.9 +16.8 57 +30 +30 душно 1010.8 954.8
15 13.06 В 1 н/о н/о +27.0 +17.6 56 +31 +31 душно 1010.2 954.5
16 13.06 ЮВ 1 н/о н/о +27.4 +18.2 57 +32 +32 очень
душно
1009.7 954.1
17 13.06 СВ 1 н/о н/о +26.8 +17.8 58 +31 +31 душно 1009.5 953.8
18 13.06 С 1 н/о н/о +24.5 +18.9 71 +29 +29 душно 1009.8 953.7 +18.1 +28.0
19 13.06 штиль 0 н/о н/о +21.5 +18.8 85 +26 +26 душно 1011.1 954.4
20 13.06 штиль 0 н/о н/о +20.6 +18.8 89 +24 +24 комфорт 1012.2 955.2
21 13.06 штиль 0 н/о н/о +20.4 +18.6 89 +24 +24 комфорт 1012.7 955.7
22 13.06 С 1 н/о н/о +20.7 +18.6 88 +26 +26 душно 1014.0 956.9
23 13.06 СВ 1 н/о осадки н/о +19.5 +18.4 93 +23 +23 комфорт 1014.9 957.6 4
00 14.06 ЮЗ 1 н/о в посл. час осадки н/о +18.8 +17.8 94 +21 +21 комфорт 1015.0 957.5 4
01 14.06 В 1 н/о н/о +18.4 +17.6 95 +20 +20 1015.5 957.9
02 14.06 штиль 0 н/о н/о +17.6 +17.2 98 +18 +18 1016.4 958.6
03 14.06 штиль 0 н/о н/о +16.5 +16.1 97 +16 +16 1017.2 959.1
04 14.06 штиль 0 н/о н/о +16.1 +15.8 98 +16 +16 1018.4 960.1
05 14.06 штиль 0 н/о н/о +16.4 +16.0 97 +16 +16 1018.6 960.4
06 14.06 штиль 0 н/о н/о +18.4 +17.8 96 +19 +19 1018.7 960.9 +16.0 +25.4 4
07 14.06 СВ 1 н/о н/о +20.4 +18.3 88 +25 +25 комфорт 1018.6 961.2
08 14.06 штиль 0 н/о н/о +22.0 +17.0 73 +26 +26 душно 1018.2 961.1
09 14.06 ЮЗ 1 н/о н/о +24.1 +18.9 73 +29 +29 душно 1017.5 960.9
10 14.06 СЗ 1 н/о н/о +25.4 +18.0 64 +30 +30 душно 1017.3 960.9
11 14.06 ЮВ 2 н/о н/о +26.0 +17.9 61 +30 +30 душно 1017.0 960.7
12 14.06 ЮВ 1 н/о н/о +27.1 +18.6 60 +32 +32 очень
душно
1016.0 960.0
13 14.06 Ю 1 н/о н/о +28.5 +17.5 51 +33 +33 очень
душно
1015.3 959.6
14 14.06 ЮВ 1 н/о н/о +29.0 +15.7 44 +32 +32 душно 1014.7 959.0
15 14.06 ЮВ 1 н/о н/о +29.2 +16.2 45 +32 +32 душно 1014.1 958.5
16 14.06 ЮВ 2 н/о н/о +28.9 +16.2 46 +32 +32 душно 1013.7 958.1
17 14.06 ЮВ 1 н/о н/о +27.9 +16.2 49 +31 +31 душно 1013.8 958.0
18 14.06 штиль 0 н/о н/о +26.7 +16.4 53 +30 +30 душно 1013.8 957.8 +18.0 +30.0
19 14.06 штиль 0 н/о н/о +21.9 +18.4 81 +27 +27 душно 1014.4 957.5
20 14.06 штиль 0 н/о н/о +19.8 +17.7 88 +22 +22 комфорт 1014.8 957.5
21 14.06 штиль 0 н/о н/о +19.6 +17.5 88 +22 +22 комфорт 1014.2 956.9
22 14.06 штиль 0 н/о н/о +20.0 +17.3 84 +23 +23 комфорт 1013.6 956.4
23 14.06 ЮЗ 1 н/о н/о +18.6 +17.0 90 +21 +21 комфорт 1013.8 956.3
00 15.06 С 1 н/о н/о +17.6 +16.5 93 +19 +19 1013.5 955.8
01 15.06 С 1 н/о н/о +16.9 +16.0 94 +18 +18 1013.4 955.6
02 15.06 С 1 н/о н/о +16.4 +15.7 96 +17 +17 1012.5 954.6
03 15.06 С 1 н/о н/о +16.1 +15.5 96 +17 +17 1012.4 954.5
04 15.06 С 1 н/о н/о +16.0 +15.4 96 +17 +17 1012.4 954.5
05 15.06 С 1 н/о н/о +17.2 +16.3 94 +18 +18 1012.1 954.4
06 15.06 С 1 н/о н/о +20.2 +18.2 88 +25 +25 комфорт 1011.3 954.3 +15.9 +26.9
07 15.06 штиль 0 н/о н/о +22.3 +18.9 81 +28 +28 душно 1011.2 954.6
08 15.06 В 1 н/о н/о +24.5 +18.0 67 +29 +29 душно 1010.9 954.7
09 15.06 В 2 н/о н/о +26.1 +18.7 64 +31 +31 очень
душно
1010.1 954.3
10 15.06 В 1 н/о н/о +26.5 +19.1 64 +32 +32 очень
душно
1010.1 954.3
11 15.06 штиль 0 н/о н/о +27.0 +19.3 63 +33 +33 очень
душно
1010.2 954.5
12 15.06 С 1 н/о н/о +27.1 +19.7 64 +33 +33 очень
душно
1010.1 954.5
13 15.06 ЮВ 2 н/о н/о +29.2 +18.0 51 +34 +34 очень
душно
1009.7 954.4
14 15.06 В 1 н/о н/о +27.8 +20.5 65 +35 +35 очень
душно
1009.8 954.3
15 15.06 В 1 н/о н/о +30.2 +16.3 43 +33 +33 душно 1008.7 953.6
16 15.06 Ю 1 н/о н/о +30.2 +14.6 39 +32 +32 жарко 1008.3 953.2
17 15.06 ЮВ 1 н/о н/о +23.7 +18.4 72 +28 +28 душно 1009.3 953.1
18 15.06 ЮЗ 1 н/о н/о +23.3 +15.7 62 +28 +28 душно 1010.7 954.2 +19.7 +30.7
19 15.06 ЮЗ 1 н/о н/о +20.6 +15.9 74 +25 +25 комфорт 1011.8 954.8
20 15.06 штиль 0 н/о н/о +19.1 +15.4 79 +20 +20 1013.1 955.7
21 15.06 З 1 н/о н/о +20.7 +15.6 73 +25 +25 комфорт 1013.5 956.4
22 15.06 В 1 н/о в посл. час осадки н/о +17.8 +16.9 94 +19 +19 1013.3 955.7 1
23 15.06 штиль 0 н/о н/о +16.8 +16.2 96 +17 +17 1014.4 956.5
00 16.06 В 1 н/о {осадки} н/о +16.3 +15.8 97 +17 +17 1014.5 956.5 1
01 16.06 штиль 0 н/о н/о +15.6 +15.2 97 +15 +15 1014.6 956.4
02 16.06 штиль 0 н/о н/о +15.1 +14.7 97 +15 +15 1014.6 956.3
03 16.06 штиль 0 н/о н/о +15.1 +14.7 97 +15 +15 1015.3 957.0
04 16.06 штиль 0 н/о н/о +15.7 +15.1 96 +15 +15 1015.9 957.7
05 16.06 штиль 0 н/о н/о +16.2 +15.6 96 +16 +16 1015.9 957.8
06 16.06 СЗ 1 н/о н/о +18.1 +16.3 89 +19 +19 1016.2 958.5 +14.8 +24.0 1
07 16.06 СЗ 1 н/о н/о +19.4 +16.3 82 +22 +22 комфорт 1016.4 958.9
08 16.06 СЗ 1 н/о н/о +20.1 +16.6 80 +24 +24 комфорт 1016.6 959.2
09 16.06 З 4 н/о н/о +19.1 +16.0 82 +21 +21 комфорт 1017.5 959.9 0.0
10 16.06 З 1 н/о н/о +20.5 +15.9 75 +25 +25 комфорт 1017.4 960.0
11 16.06 З 1 н/о н/о +18.1 +15.1 83 +19 +19 1019.0 961.1 0.0
12 16.06 СЗ 2 н/о н/о +18.4 +13.6 74 +19 +19 1019.3 961.4 0.0
13 16.06 З 2 н/о н/о +19.8 +14.1 70 +22 +22 комфорт 1018.7 961.1
14 16.06 СЗ 1 н/о н/о +19.7 +14.0 70 +23 +23 комфорт 1018.5 960.9
15 16.06 З 2 н/о н/о +19.9 +13.9 68 +22 +22 комфорт 1018.7 961.1
16 16.06 СЗ 2 н/о н/о +20.1 +13.8 67 +23 +23 комфорт 1018.4 960.9
17 16.06 СЗ 3 н/о н/о +20.1 +13.3 65 +22 +22 комфорт 1019.1 961.5
18 16.06 СЗ 1 н/о н/о +18.8 +14.4 76 +21 +21 комфорт 1019.8 961.9 +17.4 +20.9 0.0
19 16.06 З 1 н/о н/о +18.2 +13.4 74 +20 +20 1019.5 961.5
20 16.06 штиль 0 н/о н/о +16.6 +13.5 82 +16 +16 1020.1 961.8
21 16.06 В 1 н/о н/о +15.6 +13.6 88 +16 +16 1021.5 962.9
22 16.06 штиль 0 н/о н/о +15.1 +13.6 91 +15 +15 1021.7 963.0
23 16.06 штиль 0 н/о н/о +13.8 +13.0 95 +13 +13 1021.6 962.6
00 17.06 В 1 н/о н/о +13.1 +12.4 96 +13 +13 1021.4 962.3
01 17.06 штиль 0 н/о н/о +12.9 +12.4 97 +12 +12 1021.8 962.6
02 17.06 штиль 0 н/о н/о +12.5 +12.0 97 +12 +12 1021.9 962.6
03 17.06 В 1 н/о н/о +12.5 +12.1 97 +12 +12 1021.9 962.6
04 17.06 штиль 0 н/о н/о +11.9 +11.5 97 +11 +11 1022.0 962.6
05 17.06 штиль 0 н/о н/о +13.3 +12.9 97 +13 +13 1022.0 962.9
06 17.06 штиль 0 н/о н/о +15.8 +14.4 91 +16 +16 1021.4 962.9 +11.8 +19.2
07 17.06 С 1 н/о н/о +18.6 +13.0 70 +20 +20 1020.6 962.6
08 17.06 СЗ 1 н/о н/о +19.9 +12.7 63 +23 +23 комфорт 1020.2 962.5
09 17.06 В 1 н/о н/о +20.8 +12.5 59 +24 +24 комфорт 1020.1 962.6
10 17.06 ЮВ 1 н/о н/о +21.1 +12.8 59 +23 +23 комфорт 1019.7 962.3
11 17.06 штиль 0 н/о н/о +21.9 +12.7 56 +24 +24 комфорт 1019.6 962.3
12 17.06 С 1 н/о н/о +22.0 +12.5 55 +25 +25 комфорт 1019.4 962.1
13 17.06 С 1 н/о н/о +23.1 +12.6 52 +26 +26 жарко 1018.5 961.5
15 17.06 В 1 н/о н/о +23.8 +13.8 53 +26 +26 жарко 1017.5 960.7
17 17.06 штиль 0 н/о н/о +21.6 +15.7 69 +25 +25 комфорт 1017.4 960.2
18 17.06 штиль 0 н/о н/о +19.6 +15.3 76 +21 +21 комфорт 1017.7 960.1 +15.4 +24.4
19 17.06 штиль 0 н/о н/о +17.4 +15.1 86 +17 +17 1018.2 960.2
20 17.06 штиль 0 н/о н/о +15.9 +14.7 93 +16 +16 1019.1 960.7

 

Местоположение метеостанции Цветль (Австрия): широта 48.62 долгота 15.20 высота над уровнем моря 506 м.

В архиве по умолчанию представлена погода в Цветле за последнюю неделю. Архивные данные за месяц целиком и за предыдущие месяцы, начиная с января 2011 года, Вы можете получить, выбрав интересующий диапазон дат из раскрывающегося списка и нажав кнопку "Ввод!".


*Определитесь, кто Вы:
робот инопланетянин человек

Внимание! Время в таблицах - всемирное. Для получения местного времени необходимо прибавить поправку, которая равна 1 ч.

Смотрите также архив погоды в соседних городах и на ближайших метеорологических станциях:

Погода в Аллентштайге (Австрия) (14 км)
Погода в Вайтре (Австрия) (25 км)
Погода в Бернкопфе (Австрия) (30 км)
Погода в Яуерлинге (Австрия) (34 км)
Погода в Гарс-ам-Кампе (Австрия) (35 км)
Погода в Кремс-ан-дер-Донау (Австрия) (38 км)
Погода в Личау (Австрия) (39 км)
Погода в Лангенлойсе (Австрия) (40 км)
Погода в Санкт-Пёльтене (Австрия) (56 км)
Погода в Реце (Австрия) (58 км)

Пояснения к столбцам:

Ветер - указаны скорость ветра в м/с - средняя за 10 мин, порывы в срок и между сроками (в фигурных скобках) и направление, откуда дует ветер: С - северный, СВ - северо-восточный, В - восточный, ЮВ - юго-восточный, Ю - южный, ЮЗ - юго-западный, З - западный, СЗ - северо-западный.
Видимость - горизонтальная дальность видимости в метрах или километрах. При видимости от 1 до 10 км при отсутствии осадков обычно наблюдается дымка, при ухудшении видимости до 1 км и менее - туман. В сухую погоду видимость может ухудшаться дымом, пылью или мглою.
Явления - указаны атмосферные явления, наблюдавшиеся в срок или в последний час перед сроком; фигурными скобками обозначены явления, наблюдавшиеся между сроками (за 1-3 часа до срока); квадратными скобками обозначены град или гололедные отложения с указанием их диаметра в мм.
Облачность - указаны через наклонную черту общая и нижняя облачность в баллах и высота нижней границы облаков в метрах; квадратными скобками обозначены формы облаков: Ci - перистые, Cs - перисто-слоистые, Cc - перисто-кучевые, Ac - высококучевые, As - высокослоистые, Sc - слоисто-кучевые, Ns - слоисто-дождевые, Cu - кучевые, Cb - кучево-дождевые. Подробнее классификацию облаков см. в Атласе облаков (PDF).
T - Температура воздуха - температура, измеренная на высоте 2 м над землей.
Td - Температура точки росы - температура, при понижении до которой содержащийся в воздухе водяной пар достигнет насыщения.
f - Относительная влажность воздуха - влажноcть воздуха, измеренная на высоте 2 м над землей.
Te - Эффективная температура - температура, которую ощущает одетый по сезону человек в тени. Характеристика душности погоды. При расчете учитывается влияние влажности воздуха и скорости ветра на теплоощущения человека.
Tes - Эффективная температура на солнце - температура, которую ощущает человек, с поправкой на солнечный нагрев. Характеристика знойности погоды. Зависит от высоты солнца над горизонтом, облачности и скорости ветра. Ночью, в пасмурную погоду, а также при ветре 12 м/с и более поправка равна нулю.
P - Атмосферное давление - приведенное к уровню моря атмосферное давление.
Po - Атмосферное давление - измеренное на уровне метеостанции атмосферное давление.
Tmin - Минимальная температура - минимум температуры воздуха на высоте 2 м над землей.
Tmax - Максимальная температура - максимум температуры воздуха на высоте 2 м над землей.
R - Количество осадков - Количество выпавших осадков за период времени, мм. При наведении курсора мыши на число - период времени, за который выпало указанное количество осадков.
R24 - Количество осадков - Количество выпавших осадков за 24 часа, мм.
S - Снежный покров - Высота снежного покрова, см. При наведении курсора мыши на число - состояние снежного покрова и степень покрытия местности в баллах.